Anaktuvuk Pass, AK

3:43 PM AKST on January 18, 2017 (GMT -0900)
Anaktuvuk Pass

Weather History for PAKP - October, 2013

Change the Weather History Date:

Monday, October 28, 2013

  Actual Average Record
Temperature  
Mean Temperature 27 °F -  
Max Temperature 28 °F 8 °F 30 °F (2012)
Min Temperature 26 °F 0 °F -22 °F (2001)
Degree Days  
Heating Degree Days 38    
Moisture  
Dew Point 21 °F    
Average Humidity 75    
Maximum Humidity 80    
Minimum Humidity 64    
Precipitation  
Precipitation 0.02 in - - ()
Sea Level Pressure  
Sea Level Pressure 29.25 in    
Wind  
Wind Speed 6 mph (North)    
Max Wind Speed 13 mph    
Max Gust Speed 20 mph    
Visibility 5 miles    
Events      
Averages and records for this station are not official NWS values.
T = Trace of Precipitation, MM = Missing Value Source: NWS Daily Summary

Daily Weather History Graph

Daily Weather History Graph

Search for Another Location

Airport or City:

Trip Planner

Search our weather history database for the weather conditions in past years. The results will help you decide how hot, cold, wet, or windy it might be!

Date:

Astronomy

Oct. 28, 2013 Rise Set
Actual Time 10:04 AM AKDT 5:35 PM AKDT
Civil Twilight 9:01 AM AKDT 6:38 PM AKDT
Nautical Twilight 7:54 AM AKDT 7:45 PM AKDT
Astronomical Twilight 6:49 AM AKDT 8:49 PM AKDT
Moon 1:24 AM AKDT (10/28) 4:47 PM AKDT (10/28)
Length of Visible Light 9h 37m
Length of Day
7h 31m
Waning Crescent, 33% of the Moon is Illuminated
Oct 28
Waning Crescent
Nov 3
New
Nov 9
First Quarter
Nov 17
Full
Nov 25
Last Quarter

Hourly Weather History & Observations

Time (AKDT) Temp. Windchill Dew Point Humidity Pressure Visibility Wind Dir Wind Speed Gust Speed Precip Events Conditions
12:16 AM 28.4 °F 18.0 °F 19.4 °F 69% 29.65 in 10.0 mi SW 12.7 mph 19.6 mph N/A   Mostly Cloudy
12:36 AM 28.4 °F 18.0 °F 19.4 °F 69% 29.64 in 10.0 mi SW 12.7 mph 18.4 mph N/A   Overcast
12:56 AM 28.4 °F 19.1 °F 19.4 °F 69% 29.64 in 10.0 mi WSW 10.4 mph 16.1 mph N/A   Mostly Cloudy
1:16 AM 28.4 °F 20.4 °F 19.4 °F 69% 29.62 in 10.0 mi SW 8.1 mph - N/A   Scattered Clouds
1:36 AM 26.6 °F 21.2 °F 17.6 °F 69% 29.62 in 10.0 mi SSW 4.6 mph - N/A   Clear
1:56 AM 26.6 °F 18.2 °F 17.6 °F 69% 29.60 in 10.0 mi SW 8.1 mph - N/A   Clear
2:16 AM 28.4 °F 18.5 °F 19.4 °F 69% 29.58 in 10.0 mi SSE 11.5 mph - N/A   Mostly Cloudy
2:36 AM 28.4 °F 20.4 °F 17.6 °F 64% 29.57 in 10.0 mi South 8.1 mph - N/A   Mostly Cloudy
2:56 AM 28.4 °F 19.7 °F 19.4 °F 69% 29.55 in 10.0 mi South 9.2 mph - N/A   Partly Cloudy
3:16 AM 28.4 °F 19.7 °F 19.4 °F 69% 29.54 in 10.0 mi South 9.2 mph - N/A   Scattered Clouds
3:36 AM 26.6 °F 20.0 °F 17.6 °F 69% 29.51 in 10.0 mi South 5.8 mph - N/A   Overcast
3:56 AM 26.6 °F 21.2 °F 19.4 °F 74% 29.51 in 10.0 mi SW 4.6 mph - N/A   Mostly Cloudy
4:16 AM 26.6 °F 22.6 °F 17.6 °F 69% 29.50 in 10.0 mi SW 3.5 mph - N/A   Mostly Cloudy
4:36 AM 26.6 °F - 17.6 °F 69% 29.49 in 10.0 mi Calm Calm - N/A   Overcast
4:56 AM 26.6 °F 22.6 °F 19.4 °F 74% 29.48 in 10.0 mi WNW 3.5 mph - N/A   Overcast
5:16 AM 26.6 °F 22.6 °F 19.4 °F 74% 29.47 in 10.0 mi West 3.5 mph - N/A   Overcast
5:36 AM 26.6 °F - 19.4 °F 74% 29.46 in 10.0 mi Calm Calm - N/A   Overcast
5:56 AM 26.6 °F - 19.4 °F 74% 29.44 in 10.0 mi Calm Calm - N/A   Overcast
6:16 AM 26.6 °F - 19.4 °F 74% 29.43 in 10.0 mi Calm Calm - N/A   Overcast
6:36 AM 26.6 °F - 19.4 °F 74% 29.42 in 10.0 mi Calm Calm - N/A   Overcast
6:56 AM 26.6 °F - 19.4 °F 74% 29.41 in 8.0 mi Calm Calm - N/A   Overcast
7:16 AM 26.6 °F - 19.4 °F 74% 29.40 in 3.0 mi Calm Calm - N/A   Overcast
7:36 AM 28.4 °F - 21.2 °F 74% 29.39 in 3.0 mi Calm Calm - N/A   Overcast
7:56 AM 28.4 °F 22.2 °F 21.2 °F 74% 29.38 in 2.0 mi NNE 5.8 mph - N/A   Overcast
8:16 AM 28.4 °F 22.2 °F 23.0 °F 80% 29.37 in 2.5 mi NNE 5.8 mph - N/A   Overcast
8:36 AM 28.4 °F 21.2 °F 21.2 °F 74% 29.35 in 2.5 mi NNE 6.9 mph - N/A   Overcast
8:56 AM 28.4 °F 21.2 °F 21.2 °F 74% 29.34 in 2.5 mi North 6.9 mph - N/A   Overcast
9:16 AM 28.4 °F 21.2 °F 21.2 °F 74% 29.33 in 3.0 mi North 6.9 mph - N/A   Overcast
9:36 AM 28.4 °F - 21.2 °F 74% - 5.0 mi North - - N/A   Overcast
9:56 AM 28.4 °F 19.7 °F 21.2 °F 74% 29.30 in 7.0 mi North 9.2 mph - N/A   Overcast
10:16 AM 26.6 °F 20.0 °F 21.2 °F 80% 29.30 in 2.5 mi NNE 5.8 mph - N/A   Overcast
10:36 AM 26.6 °F 19.1 °F 21.2 °F 80% 29.28 in 1.5 mi NNE 6.9 mph - N/A   Overcast
10:56 AM 26.6 °F 20.0 °F 21.2 °F 80% 29.28 in 2.0 mi NNE 5.8 mph - N/A   Overcast
11:16 AM 26.6 °F 21.2 °F 21.2 °F 80% 29.27 in 2.5 mi NNE 4.6 mph - N/A   Overcast
11:36 AM 26.6 °F 21.2 °F 21.2 °F 80% 29.26 in 2.5 mi North 4.6 mph - N/A   Overcast
11:56 AM 28.4 °F 23.3 °F 21.2 °F 74% 29.25 in 2.0 mi North 4.6 mph - N/A   Overcast
12:16 PM 28.4 °F 24.6 °F 21.2 °F 74% 29.24 in 3.0 mi North 3.5 mph - N/A   Overcast
12:36 PM 28.4 °F 23.3 °F 21.2 °F 74% 29.22 in 4.0 mi NNE 4.6 mph - N/A   Overcast
12:56 PM 28.4 °F 23.3 °F 21.2 °F 74% 29.21 in 3.0 mi NNE 4.6 mph - N/A   Overcast
1:16 PM 28.4 °F - 21.2 °F 74% 29.21 in 4.0 mi Calm Calm - N/A   Overcast
1:36 PM 28.4 °F 24.6 °F 23.0 °F 80% 29.19 in 5.0 mi North 3.5 mph - N/A   Overcast
1:56 PM 28.4 °F - 23.0 °F 80% 29.18 in 3.0 mi Calm Calm - N/A   Overcast
2:16 PM 28.4 °F - 23.0 °F 80% 29.17 in 3.0 mi Calm Calm - N/A   Overcast
2:36 PM 28.4 °F 24.6 °F 23.0 °F 80% 29.15 in 8.0 mi North 3.5 mph - N/A   Overcast
2:56 PM 28.4 °F 24.6 °F 23.0 °F 80% 29.14 in 10.0 mi North 3.5 mph - N/A   Overcast
3:16 PM - - - N/A% 29.12 in 10.0 mi NNE 4.6 mph - N/A   Mostly Cloudy
3:36 PM 28.4 °F 22.2 °F 21.2 °F 74% 29.11 in 6.0 mi NNE 5.8 mph - N/A   Mostly Cloudy
3:56 PM 28.4 °F 23.3 °F 21.2 °F 74% 29.10 in 2.5 mi NNE 4.6 mph - N/A   Overcast
4:16 PM 28.4 °F 23.3 °F 21.2 °F 74% 29.10 in 3.0 mi North 4.6 mph - N/A   Overcast
4:36 PM 28.4 °F 23.3 °F 21.2 °F 74% 29.09 in 1.2 mi North 4.6 mph - N/A   Overcast
4:56 PM 28.4 °F 23.3 °F 21.2 °F 74% 29.08 in 1.0 mi NNE 4.6 mph - N/A   Overcast
5:16 PM 28.4 °F 24.6 °F 21.2 °F 74% 29.06 in 1.0 mi NNE 3.5 mph - N/A   Overcast
5:36 PM 28.4 °F 23.3 °F 21.2 °F 74% 29.06 in 1.2 mi North 4.6 mph - N/A   Overcast
5:56 PM 28.4 °F 23.3 °F 21.2 °F 74% 29.05 in 1.5 mi NNE 4.6 mph - N/A   Overcast
6:16 PM 28.4 °F 22.2 °F 21.2 °F 74% 29.03 in 2.0 mi NNE 5.8 mph - N/A   Overcast
6:36 PM 28.4 °F 21.2 °F 21.2 °F 74% 29.02 in 3.0 mi NE 6.9 mph - N/A   Overcast
6:56 PM 28.4 °F 21.2 °F 21.2 °F 74% 29.02 in 5.0 mi NE 6.9 mph - N/A   Overcast
7:16 PM 28.4 °F 21.2 °F 21.2 °F 74% 29.01 in 3.0 mi NE 6.9 mph - N/A   Overcast
7:36 PM 26.6 °F 20.0 °F 21.2 °F 80% 29.00 in 3.0 mi NNE 5.8 mph - N/A   Overcast
7:56 PM 28.4 °F 22.2 °F 21.2 °F 74% 29.00 in 2.5 mi NNE 5.8 mph - N/A   Overcast
8:16 PM 28.4 °F 23.3 °F 21.2 °F 74% 29.00 in 2.0 mi NE 4.6 mph - N/A   Overcast
8:36 PM 28.4 °F 24.6 °F 21.2 °F 74% 28.99 in 2.0 mi NE 3.5 mph - N/A   Overcast
8:56 PM 28.4 °F - 21.2 °F 74% 28.99 in 2.0 mi Calm Calm - N/A   Overcast
9:16 PM 26.6 °F 22.6 °F 21.2 °F 80% 28.99 in 1.8 mi NW 3.5 mph - N/A   Overcast
9:36 PM 26.6 °F - 21.2 °F 80% 28.98 in 2.0 mi Calm Calm - N/A   Overcast
9:56 PM 26.6 °F - 21.2 °F 80% 28.98 in 2.5 mi Calm Calm - N/A   Overcast
10:16 PM 26.6 °F - 21.2 °F 80% 28.98 in 2.0 mi Calm Calm - N/A   Overcast
10:36 PM 28.4 °F - 21.2 °F 74% 28.98 in 2.0 mi Calm Calm - 0.01 in   Overcast
10:56 PM 28.4 °F - 21.2 °F 74% 28.98 in 2.0 mi Calm Calm - 0.01 in   Overcast
11:16 PM 28.4 °F - 21.2 °F 74% 28.98 in 1.5 mi Calm Calm - N/A   Overcast
11:36 PM 26.6 °F - 21.2 °F 80% 28.98 in 1.8 mi Calm Calm - 0.01 in   Overcast
11:56 PM 26.6 °F 21.2 °F 21.2 °F 80% 28.98 in 2.0 mi NNE 4.6 mph - 0.01 in   Overcast